Вернуться в каталог

STARLINK-31610

АктивенСвязьVLEO
NORAD 59473·PAYLOAD·🇺🇸 United States

Запущен Apr 10, 2024 с Cape Canaveral Space Force Station

Loading…

Ближайшие Пролёты (ближайшие 24 часа)

TLE

СвежийSource: CelesTrak SupGP

Эпоха: Sep 14, 2026, 20:57 UTC

1 59473C 24068U   26257.87340278  .00052510  00000+0  19023-2 0  2575
2 59473  43.0015  45.9299 0001280 276.1619 239.1512 15.27546128    19

Отслеживайте STARLINK-31610 в реальном времени с AllMySat

Download on the App Store